TimeCST,TemperatureF,Dew PointF,Humidity,Sea Level PressureIn,VisibilityMPH,Wind Direction,Wind SpeedMPH,Gust SpeedMPH,PrecipitationIn,Events,Conditions,WindDirDegrees,DateUTC
12:53 AM,23.0,14.0,68,30.08,10.0,NNW,15.0,-,N/A,,Overcast,330,2014-02-15 06:53:00
1:53 AM,21.9,14.0,72,30.09,10.0,NNW,13.8,-,N/A,,Overcast,340,2014-02-15 07:53:00
2:53 AM,21.0,12.9,71,30.10,10.0,NW,5.8,-,N/A,,Overcast,320,2014-02-15 08:53:00
3:29 AM,19.0,12.0,74,30.11,10.0,NNW,8.1,-,N/A,,Scattered Clouds,340,2014-02-15 09:29:00
3:53 AM,19.0,10.9,71,30.14,10.0,NNW,9.2,-,N/A,,Clear,330,2014-02-15 09:53:00
4:53 AM,17.1,10.0,74,30.14,10.0,NNE,6.9,-,N/A,,Clear,20,2014-02-15 10:53:00
5:53 AM,16.0,10.0,77,30.17,10.0,North,5.8,-,N/A,,Clear,350,2014-02-15 11:53:00
6:53 AM,16.0,10.9,81,30.17,9.0,ENE,3.5,-,N/A,,Clear,60,2014-02-15 12:53:00
7:53 AM,19.0,10.9,71,30.20,10.0,North,3.5,-,N/A,,Clear,10,2014-02-15 13:53:00
8:53 AM,21.0,10.9,65,30.23,10.0,Calm,Calm,-,N/A,,Clear,0,2014-02-15 14:53:00
9:53 AM,21.9,12.0,66,30.23,10.0,Calm,Calm,-,N/A,,Clear,0,2014-02-15 15:53:00
10:53 AM,24.1,12.9,62,30.23,10.0,WSW,4.6,-,N/A,,Clear,240,2014-02-15 16:53:00
11:53 AM,26.1,15.1,63,30.21,10.0,SW,4.6,-,N/A,,Clear,230,2014-02-15 17:53:00
12:53 PM,26.1,14.0,60,30.19,10.0,Calm,Calm,-,N/A,,Partly Cloudy,0,2014-02-15 18:53:00
1:53 PM,28.0,17.1,63,30.17,10.0,SSE,4.6,-,N/A,,Mostly Cloudy,160,2014-02-15 19:53:00
2:53 PM,28.9,17.1,61,30.14,10.0,SE,8.1,-,N/A,,Overcast,130,2014-02-15 20:53:00
3:53 PM,30.0,19.0,64,30.12,10.0,South,5.8,-,N/A,,Overcast,180,2014-02-15 21:53:00
4:53 PM,30.9,19.9,64,30.13,9.0,SW,8.1,-,N/A,,Overcast,220,2014-02-15 22:53:00
5:53 PM,30.9,21.9,69,30.11,10.0,Calm,Calm,-,N/A,,Overcast,0,2014-02-15 23:53:00
6:53 PM,30.9,21.9,69,30.08,10.0,Calm,Calm,-,N/A,,Overcast,0,2014-02-16 00:53:00
7:53 PM,30.9,21.9,69,30.09,10.0,Calm,Calm,-,N/A,,Overcast,0,2014-02-16 01:53:00
8:53 PM,30.9,24.1,76,30.08,9.0,NNW,3.5,-,N/A,,Overcast,340,2014-02-16 02:53:00
9:53 PM,30.9,25.0,79,30.07,9.0,Calm,Calm,-,N/A,,Overcast,0,2014-02-16 03:53:00
10:53 PM,30.0,21.9,72,30.04,9.0,Calm,Calm,-,N/A,,Scattered Clouds,0,2014-02-16 04:53:00
11:53 PM,27.0,21.9,81,30.04,8.0,Calm,Calm,-,N/A,,Clear,0,2014-02-16 05:53:00